When you browse on this site, cookies collect data to enhance your experience and personalize the content and advertising you see.
Visit our Privacy Policy to learn more. By continuing to use the site, you agree to this use of cookies and data.
  • In Lithuania
  • List of Countries
  • For 7 days
  • Water Temperature
  • Satellite Maps
  • Weather Map
  • Weather Widgets
  • user-avatar
    Login

    Hourly Weather Malozhirovo

    Today, 21 May, Tuesday

    Time Temperature Precipitation Wind Pressure Humidity
    00:00 +8°C° 0 mm 1 mps 739 mmHg 48%
    01:00 +8°C° 0 mm 1 mps 739 mmHg 50%
    02:00 +7°C° 0 mm 1 mps 739 mmHg 53%
    03:00 +7°C° 0 mm 1 mps 739 mmHg 55%
    04:00 +8°C° 0 mm 1 mps 738 mmHg 55%
    05:00 +8°C° 0 mm 1 mps 738 mmHg 55%
    06:00 +9°C° 0 mm 1 mps 738 mmHg 55%
    07:00 +10°C° 0 mm 1 mps 737 mmHg 54%
    08:00 +11°C° 0 mm 1 mps 737 mmHg 54%
    09:00 +12°C° 0 mm 1 mps 737 mmHg 53%
    10:00 +13°C° 0 mm 2 mps 737 mmHg 48%
    11:00 +15°C° 0 mm 2 mps 737 mmHg 43%
    12:00 +16°C° 0 mm 2 mps 737 mmHg 38%
    13:00 +16°C° 0 mm 3 mps 737 mmHg 41%
    14:00 +14°C° 0 mm 3 mps 737 mmHg 44%
    15:00 +14°C° 0 mm 4 mps 736 mmHg 47%
    16:00 +13°C° 0.1 mm 3 mps 736 mmHg 49%
    17:00 +13°C° 0.1 mm 3 mps 736 mmHg 50%
    18:00 +14°C° 0.1 mm 2 mps 736 mmHg 52%
    19:00 +12°C° 0.3 mm 2 mps 736 mmHg 61%
    20:00 +10°C° 0.3 mm 2 mps 737 mmHg 71%
    21:00 +8°C° 0.3 mm 2 mps 737 mmHg 80%
    22:00 +7°C° 0.1 mm 2 mps 737 mmHg 82%
    23:00 +7°C° 0.1 mm 2 mps 737 mmHg 85%

    Tomorrow, 22 May, Wednesday

    Time Temperature Precipitation Wind Pressure Humidity
    00:00 +7°C° 0.1 mm 2 mps 738 mmHg 87%
    01:00 +6°C° 0 mm 2 mps 738 mmHg 89%
    02:00 +6°C° 0 mm 2 mps 738 mmHg 91%
    03:00 +4°C° 0 mm 3 mps 738 mmHg 93%
    04:00 +5°C° 0 mm 3 mps 739 mmHg 91%
    05:00 +5°C° 0 mm 3 mps 739 mmHg 89%
    06:00 +6°C° 0 mm 4 mps 740 mmHg 86%
    07:00 +7°C° 0.4 mm 4 mps 740 mmHg 82%
    08:00 +8°C° 0.4 mm 4 mps 740 mmHg 77%
    09:00 +9°C° 0.4 mm 5 mps 740 mmHg 72%
    10:00 +10°C° 0.6 mm 5 mps 740 mmHg 67%
    11:00 +12°C° 0.6 mm 5 mps 740 mmHg 62%
    12:00 +11°C° 0.6 mm 6 mps 740 mmHg 56%
    13:00 +13°C° 0.1 mm 5 mps 740 mmHg 50%
    14:00 +14°C° 0.1 mm 5 mps 740 mmHg 43%
    15:00 +15°C° 0.1 mm 5 mps 740 mmHg 36%
    16:00 +15°C° 0 mm 5 mps 740 mmHg 37%
    17:00 +14°C° 0 mm 4 mps 740 mmHg 38%
    18:00 +14°C° 0 mm 4 mps 740 mmHg 39%
    19:00 +12°C° 0 mm 3 mps 740 mmHg 44%
    20:00 +12°C° 0 mm 2 mps 740 mmHg 49%
    21:00 +10°C° 0 mm 1 mps 740 mmHg 54%
    22:00 +9°C° 0.1 mm 1 mps 740 mmHg 59%
    23:00 +7°C° 0.1 mm 2 mps 740 mmHg 64%

    Day after tomorrow, 23 May, Thursday

    Time Temperature Precipitation Wind Pressure Humidity
    00:00 +6°C° 0.1 mm 2 mps 740 mmHg 68%
    01:00 +6°C° 0.2 mm 2 mps 740 mmHg 72%
    02:00 +5°C° 0.2 mm 2 mps 740 mmHg 76%
    03:00 +5°C° 0.2 mm 2 mps 740 mmHg 80%
    04:00 +5°C° 0 mm 2 mps 741 mmHg 79%
    05:00 +6°C° 0 mm 2 mps 741 mmHg 78%
    06:00 +7°C° 0 mm 2 mps 742 mmHg 76%
    07:00 +8°C° 0 mm 2 mps 742 mmHg 69%
    08:00 +10°C° 0 mm 3 mps 742 mmHg 63%
    09:00 +11°C° 0 mm 3 mps 743 mmHg 56%
    10:00 +12°C° 0.2 mm 3 mps 743 mmHg 51%
    11:00 +13°C° 0.2 mm 4 mps 743 mmHg 46%
    12:00 +14°C° 0.2 mm 4 mps 743 mmHg 41%
    13:00 +14°C° 0 mm 4 mps 743 mmHg 37%
    14:00 +15°C° 0 mm 4 mps 743 mmHg 34%
    15:00 +15°C° 0 mm 4 mps 743 mmHg 30%
    16:00 +15°C° 0 mm 4 mps 743 mmHg 31%
    17:00 +14°C° 0 mm 3 mps 744 mmHg 32%
    18:00 +14°C° 0 mm 3 mps 744 mmHg 32%
    19:00 +13°C° 0 mm 2 mps 744 mmHg 38%
    20:00 +10°C° 0 mm 2 mps 745 mmHg 43%
    21:00 +9°C° 0 mm 1 mps 745 mmHg 48%
    22:00 +8°C° 0 mm 1 mps 746 mmHg 50%
    23:00 +8°C° 0 mm 1 mps 746 mmHg 51%

    24 May, Friday

    Time Temperature Precipitation Wind Pressure Humidity
    00:00 +7°C° 0 mm 1 mps 746 mmHg 52%
    01:00 +7°C° 0 mm 2 mps 746 mmHg 53%
    02:00 +7°C° 0 mm 2 mps 746 mmHg 55%
    03:00 +8°C° 0 mm 2 mps 747 mmHg 56%
    04:00 +8°C° 0 mm 3 mps 747 mmHg 58%
    05:00 +9°C° 0 mm 3 mps 747 mmHg 61%
    06:00 +8°C° 0 mm 4 mps 747 mmHg 63%
    07:00 +9°C° 0 mm 5 mps 747 mmHg 55%
    08:00 +12°C° 0 mm 5 mps 747 mmHg 48%
    09:00 +14°C° 0 mm 6 mps 747 mmHg 40%
    10:00 +14°C° 0 mm 6 mps 746 mmHg 40%
    11:00 +15°C° 0 mm 7 mps 746 mmHg 39%
    12:00 +15°C° 0 mm 7 mps 746 mmHg 38%
    13:00 +15°C° 0 mm 7 mps 745 mmHg 39%
    14:00 +15°C° 0 mm 7 mps 745 mmHg 41%
    15:00 +15°C° 0 mm 7 mps 745 mmHg 42%
    16:00 +13°C° 0.8 mm 6 mps 745 mmHg 56%
    17:00 +12°C° 0.8 mm 5 mps 744 mmHg 69%
    18:00 +10°C° 0.8 mm 4 mps 744 mmHg 82%
    19:00 +10°C° 0.2 mm 4 mps 743 mmHg 79%
    20:00 +10°C° 0.2 mm 5 mps 743 mmHg 77%
    21:00 +10°C° 0.2 mm 5 mps 742 mmHg 74%
    22:00 +12°C° 0 mm 5 mps 742 mmHg 72%
    23:00 +11°C° 0 mm 6 mps 742 mmHg 71%

    25 May, Saturday

    Time Temperature Precipitation Wind Pressure Humidity
    00:00 +13°C° 0 mm 6 mps 741 mmHg 70%
    01:00 +13°C° 0.1 mm 6 mps 741 mmHg 70%
    02:00 +13°C° 0.1 mm 6 mps 741 mmHg 71%
    03:00 +13°C° 0.1 mm 5 mps 741 mmHg 72%
    04:00 +13°C° 0.1 mm 5 mps 741 mmHg 70%
    05:00 +13°C° 0.1 mm 5 mps 741 mmHg 69%
    06:00 +13°C° 0.1 mm 5 mps 741 mmHg 68%
    07:00 +14°C° 0.2 mm 6 mps 741 mmHg 66%
    08:00 +15°C° 0.2 mm 6 mps 740 mmHg 65%
    09:00 +16°C° 0.2 mm 6 mps 740 mmHg 64%
    10:00 +18°C° 0 mm 7 mps 740 mmHg 55%
    11:00 +21°C° 0 mm 8 mps 739 mmHg 45%
    12:00 +23°C° 0 mm 8 mps 739 mmHg 36%
    13:00 +23°C° 0 mm 8 mps 738 mmHg 37%
    14:00 +23°C° 0 mm 8 mps 738 mmHg 38%
    15:00 +22°C° 0 mm 8 mps 737 mmHg 38%
    16:00 +21°C° 0.1 mm 7 mps 737 mmHg 46%
    17:00 +20°C° 0.1 mm 7 mps 737 mmHg 53%
    18:00 +17°C° 0.1 mm 6 mps 737 mmHg 61%
    19:00 +15°C° 0.9 mm 5 mps 738 mmHg 71%
    20:00 +14°C° 0.9 mm 4 mps 738 mmHg 81%
    21:00 +12°C° 0.9 mm 3 mps 738 mmHg 91%
    22:00 +11°C° 0.7 mm 3 mps 738 mmHg 90%
    23:00 +10°C° 0.7 mm 4 mps 739 mmHg 88%

    26 May, Sunday

    Time Temperature Precipitation Wind Pressure Humidity
    00:00 +8°C° 0.7 mm 4 mps 739 mmHg 87%
    01:00 +7°C° 0 mm 4 mps 740 mmHg 88%
    02:00 +7°C° 0 mm 3 mps 740 mmHg 89%
    03:00 +5°C° 0 mm 3 mps 741 mmHg 91%
    04:00 +5°C° 0 mm 3 mps 741 mmHg 87%
    05:00 +6°C° 0 mm 4 mps 742 mmHg 84%
    06:00 +6°C° 0 mm 4 mps 742 mmHg 80%
    07:00 +6°C° 0.3 mm 4 mps 742 mmHg 80%
    08:00 +6°C° 0.3 mm 5 mps 742 mmHg 80%
    09:00 +7°C° 0.3 mm 5 mps 741 mmHg 80%
    10:00 +7°C° 0.6 mm 5 mps 742 mmHg 78%
    11:00 +7°C° 0.6 mm 5 mps 742 mmHg 76%
    12:00 +7°C° 0.6 mm 5 mps 742 mmHg 73%
    13:00 +8°C° 0.2 mm 6 mps 743 mmHg 63%
    14:00 +9°C° 0.2 mm 6 mps 743 mmHg 52%
    15:00 +11°C° 0.2 mm 6 mps 744 mmHg 42%
    16:00 +10°C° 0 mm 6 mps 745 mmHg 42%
    17:00 +10°C° 0 mm 6 mps 745 mmHg 42%
    18:00 +10°C° 0 mm 6 mps 746 mmHg 43%
    19:00 +8°C° 0 mm 5 mps 746 mmHg 47%
    20:00 +7°C° 0 mm 4 mps 747 mmHg 51%
    21:00 +7°C° 0 mm 3 mps 747 mmHg 55%
    22:00 +5°C° 0 mm 4 mps 748 mmHg 59%
    23:00 +5°C° 0 mm 4 mps 748 mmHg 63%
    Show more